Lafayette, CO

9:46 PM MDT on September 25, 2016 (GMT -0600)
Erie Municipal Airport

Weather History for KEIK - February, 2013

Change the Weather History Date:

Thursday, February 14, 2013

  Actual Average (KBDU) Record (KBDU)
Temperature  
Mean Temperature 28 °F -  
Max Temperature 34 °F - 60 °F (2015)
Min Temperature 22 °F - 30 °F (2014)
Degree Days  
Heating Degree Days 37    
Month to date heating degree days  
Cooling Degree Days 0    
Month to date cooling degree days  
Moisture  
Dew Point 20 °F    
Average Humidity 73    
Maximum Humidity 90    
Minimum Humidity 46    
Precipitation  
Precipitation 0.00 in - 0.00 in (2016)
Sea Level Pressure  
Sea Level Pressure 30.15 in    
Wind  
Wind Speed 6 mph (East)    
Max Wind Speed 22 mph    
Max Gust Speed 30 mph    
Visibility 9 miles    
Events Snow    
T = Trace of Precipitation, MM = Missing Value Source: NWS Daily Summary

Daily Weather History Graph

Daily Weather History Graph

Search for Another Location

Airport or City:

Trip Planner

Search our weather history database for the weather conditions in past years. The results will help you decide how hot, cold, wet, or windy it might be!

Date:

Astronomy

Feb. 14, 2013 Rise Set
Actual Time 6:53 AM MST 5:35 PM MST
Civil Twilight 6:26 AM MST 6:03 PM MST
Nautical Twilight 5:54 AM MST 6:34 PM MST
Astronomical Twilight 5:23 AM MST 7:06 PM MST
Moon 8:57 AM MST (2/14) 10:40 PM MST (2/14)
Length of Visible Light 11h 36m
Length of Day
10h 41m
Waxing Crescent, 22% of the Moon is Illuminated
Feb 14
Waxing Crescent
Feb 17
First Quarter
Feb 25
Full
Mar 4
Last Quarter
Mar 11
New

Hourly Weather History & Observations

Time (MST) Temp. Windchill Dew Point Humidity Pressure Visibility Wind Dir Wind Speed Gust Speed Precip Events Conditions
12:16 AM 27.9 °F - 11.3 °F 50% 29.98 in 10.0 mi Calm Calm - N/A   Clear
12:36 AM 29.1 °F - 12.9 °F 51% 29.99 in 10.0 mi Calm Calm - N/A   Clear
12:56 AM 32.7 °F 25.0 °F 13.8 °F 46% 29.99 in 10.0 mi East 9.2 mph 16.1 mph N/A   Clear
1:16 AM 31.8 °F 22.3 °F 14.0 °F 48% 29.99 in 10.0 mi East 12.7 mph 16.1 mph N/A   Clear
1:36 AM 31.1 °F 20.9 °F 14.4 °F 50% 30.00 in 10.0 mi ESE 13.8 mph 18.4 mph N/A   Clear
1:56 AM 31.3 °F 20.3 °F 14.9 °F 51% 30.00 in 10.0 mi SE 16.1 mph - N/A   Clear
2:16 AM 30.9 °F 20.7 °F 16.3 °F 55% 30.01 in 10.0 mi SE 13.8 mph - N/A   Clear
2:36 AM 30.7 °F 21.4 °F 18.9 °F 61% 30.00 in 10.0 mi SE 11.5 mph - N/A   Clear
2:56 AM 30.4 °F 23.6 °F 17.6 °F 59% 30.00 in 10.0 mi SE 6.9 mph - N/A   Clear
3:16 AM 30.4 °F 25.6 °F 17.6 °F 59% 30.00 in 10.0 mi South 4.6 mph - N/A   Clear
3:36 AM 30.7 °F - 18.3 °F 60% 29.99 in 10.0 mi Calm Calm - N/A   Clear
3:56 AM 28.9 °F - 17.6 °F 63% 30.00 in 10.0 mi Calm Calm - N/A   Clear
4:16 AM 29.3 °F - 18.9 °F 65% 30.00 in 10.0 mi Calm Calm - N/A   Clear
4:36 AM 29.1 °F 24.1 °F 19.9 °F 69% 29.99 in 10.0 mi South 4.6 mph - N/A   Clear
4:56 AM 30.2 °F 21.9 °F 22.1 °F 72% 29.99 in 10.0 mi South 9.2 mph - N/A   Clear
5:16 AM 31.1 °F 23.1 °F 23.0 °F 72% 30.00 in 10.0 mi South 9.2 mph - N/A   Clear
5:36 AM 31.8 °F 22.8 °F 22.1 °F 67% 29.99 in 10.0 mi South 11.5 mph - N/A   Scattered Clouds
5:56 AM 32.0 °F 23.0 °F 21.7 °F 66% 29.99 in 10.0 mi South 11.5 mph 16.1 mph N/A   Scattered Clouds
6:16 AM 30.7 °F 22.0 °F 21.4 °F 68% 29.99 in 10.0 mi South 10.4 mph - N/A   Clear
6:36 AM 30.2 °F - 21.2 °F 69% 30.01 in 10.0 mi Calm Calm - N/A   Clear
6:56 AM 24.8 °F 20.5 °F 18.0 °F 75% 30.02 in 10.0 mi North 3.5 mph - N/A   Clear
7:16 AM 23.5 °F - 18.1 °F 80% 30.02 in 10.0 mi Calm Calm - N/A   Clear
7:36 AM 24.3 °F - 18.5 °F 79% 30.03 in 10.0 mi Calm Calm - N/A   Clear
7:56 AM 24.8 °F - 19.0 °F 79% 30.05 in 10.0 mi Calm Calm - N/A   Clear
8:16 AM 26.4 °F - 20.1 °F 77% 30.05 in 10.0 mi Calm Calm - N/A   Clear
8:36 AM 28.8 °F - 20.3 °F 71% 30.05 in 10.0 mi Calm Calm - N/A   Scattered Clouds
8:56 AM 29.5 °F 19.9 °F 19.9 °F 68% 30.07 in 10.0 mi North 11.5 mph - N/A   Scattered Clouds
9:16 AM 29.8 °F 24.9 °F 21.2 °F 70% 30.08 in 10.0 mi North 4.6 mph - N/A   Mostly Cloudy
9:36 AM 31.6 °F 23.1 °F 22.8 °F 70% 30.09 in 10.0 mi North 10.4 mph - N/A   Overcast
9:56 AM 33.8 °F 25.3 °F 23.7 °F 67% 30.11 in 10.0 mi NE 11.5 mph - N/A   Overcast
10:16 AM 34.3 °F 25.0 °F 23.7 °F 65% 30.13 in 10.0 mi NE 13.8 mph 18.4 mph N/A   Mostly Cloudy
10:36 AM 31.1 °F 18.3 °F 23.0 °F 72% 30.16 in 7.0 mi NE 21.9 mph 29.9 mph N/A   Overcast
10:56 AM 28.0 °F 15.7 °F 23.7 °F 84% 30.19 in 5.0 mi NNE 17.3 mph 23.0 mph N/A   Overcast
11:16 AM 27.9 °F 16.8 °F 23.7 °F 84% 30.20 in 1.8 mi NNE 13.8 mph 21.9 mph N/A Snow Light Snow
11:36 AM 28.2 °F 16.3 °F 22.8 °F 80% 30.22 in 4.0 mi NNE 16.1 mph 21.9 mph N/A Snow Light Snow
11:56 AM 28.4 °F 16.6 °F 22.8 °F 80% 30.22 in 1.5 mi NNE 16.1 mph 21.9 mph N/A Snow Light Snow
12:16 PM 28.2 °F 18.3 °F 23.2 °F 81% 30.22 in 1.8 mi NNE 11.5 mph 18.4 mph N/A Snow Light Snow
12:36 PM 27.5 °F 16.8 °F 24.3 °F 88% 30.22 in 1.0 mi North 12.7 mph - N/A Snow Light Snow
12:56 PM 27.7 °F 16.1 °F 25.2 °F 90% 30.22 in 1.0 mi NNE 15.0 mph 19.6 mph N/A Snow Light Snow
1:16 PM 27.9 °F 18.4 °F 24.1 °F 86% 30.23 in 5.0 mi NNE 10.4 mph 16.1 mph N/A Snow Light Snow
1:36 PM 28.4 °F 19.7 °F 24.8 °F 86% 30.22 in 3.0 mi NE 9.2 mph - N/A Snow Light Snow
1:56 PM 28.6 °F 20.7 °F 24.1 °F 83% 30.23 in 5.0 mi North 8.1 mph - N/A Snow Light Snow
2:16 PM 27.7 °F 19.6 °F 23.9 °F 86% 30.24 in 1.8 mi NNE 8.1 mph - N/A Snow Light Snow
2:36 PM 28.2 °F 22.0 °F 23.2 °F 81% 30.24 in 4.0 mi ENE 5.8 mph - N/A Snow Light Snow
2:56 PM 28.4 °F 20.4 °F 21.9 °F 77% 30.25 in 10.0 mi NNE 8.1 mph - N/A Snow Light Snow
3:16 PM 28.9 °F 25.2 °F 22.3 °F 76% 30.25 in 10.0 mi East 3.5 mph - N/A Snow Light Snow
3:36 PM 28.6 °F 24.8 °F 22.3 °F 77% 30.26 in 5.0 mi ENE 3.5 mph - N/A Snow Light Snow
3:56 PM 28.8 °F 22.6 °F 22.3 °F 77% 30.26 in 5.0 mi East 5.8 mph - N/A Snow Light Snow
4:16 PM 28.4 °F 24.6 °F 20.5 °F 72% 30.26 in 10.0 mi East 3.5 mph - N/A Snow Light Snow
4:36 PM 28.0 °F 22.8 °F 20.5 °F 73% 30.26 in 10.0 mi SE 4.6 mph - N/A   Overcast
4:56 PM 27.5 °F 23.6 °F 19.4 °F 72% 30.26 in 10.0 mi South 3.5 mph - N/A   Overcast
5:16 PM 27.3 °F 20.9 °F 19.9 °F 74% 30.26 in 10.0 mi South 5.8 mph - N/A   Overcast
5:36 PM 26.6 °F 22.6 °F 19.8 °F 75% 30.25 in 10.0 mi SSW 3.5 mph - N/A   Overcast
5:56 PM 26.2 °F 22.1 °F 19.4 °F 75% 30.26 in 10.0 mi SSW 3.5 mph - N/A   Overcast
6:16 PM 25.3 °F - 19.4 °F 78% 30.26 in 10.0 mi Calm Calm - N/A   Overcast
6:36 PM 25.5 °F - 19.2 °F 77% 30.26 in 10.0 mi Calm Calm - N/A   Overcast
6:56 PM 25.7 °F - 19.2 °F 76% 30.26 in 10.0 mi Calm Calm - N/A   Overcast
7:16 PM 26.2 °F - 19.4 °F 75% 30.27 in 10.0 mi Calm Calm - N/A   Overcast
7:36 PM 26.4 °F - 19.0 °F 74% 30.27 in 10.0 mi Calm Calm - N/A   Overcast
7:56 PM 26.2 °F - 19.4 °F 75% 30.27 in 10.0 mi Calm Calm - N/A   Overcast
8:16 PM 25.5 °F - 20.5 °F 81% 30.26 in 10.0 mi Calm Calm - N/A   Mostly Cloudy
8:36 PM 23.9 °F - 19.9 °F 85% 30.27 in 10.0 mi Calm Calm - N/A   Scattered Clouds
8:56 PM 23.9 °F - 20.1 °F 85% 30.26 in 10.0 mi Calm Calm - N/A   Scattered Clouds
9:16 PM 23.5 °F - 20.5 °F 88% 30.26 in 10.0 mi Calm Calm - N/A   Mostly Cloudy
9:36 PM 23.2 °F - 20.7 °F 90% 30.26 in 10.0 mi Calm Calm - N/A   Scattered Clouds
9:56 PM 22.8 °F - 19.9 °F 89% 30.26 in 10.0 mi Calm Calm - N/A   Clear
10:16 PM 23.0 °F 17.0 °F 19.9 °F 88% 30.25 in 10.0 mi SE 4.6 mph - N/A   Mostly Cloudy
10:36 PM 25.0 °F 20.7 °F 19.9 °F 81% 30.24 in 10.0 mi SE 3.5 mph - N/A   Overcast
10:56 PM 24.6 °F 18.8 °F 17.2 °F 74% 30.24 in 10.0 mi SSE 4.6 mph - N/A   Mostly Cloudy
11:16 PM 23.2 °F 17.2 °F 16.2 °F 75% 30.24 in 10.0 mi ESE 4.6 mph - N/A   Scattered Clouds
11:36 PM 22.6 °F 16.5 °F 15.4 °F 74% 30.24 in 10.0 mi ESE 4.6 mph - N/A   Clear
11:56 PM 22.6 °F 16.5 °F 14.9 °F 72% 30.24 in 10.0 mi SSE 4.6 mph - N/A   Scattered Clouds